This is the latest recevied weather packets stored in our database for station/object M0JUI-1. If no packets are shown the sender has not sent any weather packets the latest 10 day(s).
| Time | Temp. | Humidity | Pressure | Rain* | Wind** | Luminosity | Snow |
|---|---|---|---|---|---|---|---|
| 1777617615 | 12.78° C | 79% | 1020.3 hPa | 0 mm | - | 110 W/m² | - |
| 1777617302 | 12.22° C | 79% | 1020.5 hPa | 0 mm | - | 78 W/m² | - |
| 1777617002 | 12.22° C | 80% | 1020.4 hPa | 0 mm | - | 71 W/m² | - |
| 1777616702 | 11.67° C | 80% | 1020.4 hPa | 0 mm | - | 68 W/m² | - |
| 1777616402 | 11.67° C | 80% | 1020.4 hPa | 0 mm | - | 64 W/m² | - |
| 1777616103 | 11.67° C | 80% | 1020.6 hPa | 0 mm | - | 60 W/m² | - |
| 1777615802 | 11.67° C | 81% | 1020.3 hPa | 0 mm | - | 57 W/m² | - |
| 1777615502 | 11.11° C | 81% | 1020.5 hPa | 0 mm | - | 53 W/m² | - |
| 1777615203 | 11.11° C | 82% | 1020.3 hPa | 0 mm | - | 50 W/m² | - |
| 1777614903 | 10.56° C | 82% | 1020.4 hPa | 0 mm | - | 46 W/m² | - |
| 1777614602 | 10.56° C | 83% | 1020.4 hPa | 0 mm | - | 43 W/m² | - |
| 1777614302 | 10.56° C | 84% | 1020.4 hPa | 0 mm | - | 40 W/m² | - |
| 1777614002 | 10.56° C | 84% | 1020.4 hPa | 0 mm | - | 37 W/m² | - |
| 1777613703 | 10° C | 85% | 1020.4 hPa | 0 mm | - | 32 W/m² | - |
| 1777613403 | 10° C | 85% | 1020.3 hPa | 0 mm | - | 31 W/m² | - |
| 1777613102 | 9.44° C | 86% | 1020.5 hPa | 0 mm | - | 27 W/m² | - |
| 1777612791 | 9.44° C | 86% | 1020.5 hPa | 0 mm | - | 22 W/m² | - |
| 1777612490 | 9.44° C | 87% | 1020.5 hPa | 0 mm | - | 21 W/m² | - |
| 1777612190 | 9.44° C | 87% | 1020.4 hPa | 0 mm | - | 18 W/m² | - |
| 1777611866 | 9.44° C | 86% | 1020.5 hPa | 0 mm | - | 14 W/m² | - |
| 1777611566 | 8.89° C | 86% | 1020.5 hPa | 0 mm | - | 12 W/m² | - |
| 1777611267 | 8.89° C | 86% | 1020.3 hPa | 0 mm | - | 9 W/m² | - |
| 1777610967 | 8.89° C | 86% | 1020.3 hPa | 0 mm | - | 7 W/m² | - |
| 1777610666 | 8.89° C | 86% | 1020.3 hPa | 0 mm | - | 5 W/m² | - |
| 1777610367 | 8.89° C | 85% | 1020.4 hPa | 0 mm | - | 3 W/m² | - |
* Rain latest hour (hover to see other rain measurements)
** Current wind speed in m/s (hover to see current wind gust speed)